Weather History for Beaufort, SC

Change the Weather History Date:

Monday, March 24, 2014

  Actual Average (KNBC) Record (KNBC)
Temperature  
Mean Temperature 50 °F -  
Max Temperature 55 °F 70 °F 92 °F (1935)
Min Temperature 46 °F 48 °F 29 °F (1968)
Degree Days  
Heating Degree Days 14    
Moisture  
Dew Point 41 °F    
Average Humidity 66    
Maximum Humidity 81    
Minimum Humidity 54    
Precipitation  
Precipitation 0.00 in - - ()
Sea Level Pressure  
Sea Level Pressure 30.14 in    
Wind  
Wind Speed 13 mph (ENE)    
Max Wind Speed 21 mph    
Max Gust Speed 28 mph    
Visibility 9 miles    
Events      
Averages and records for this station are not official NWS values.
T = Trace of Precipitation, MM = Missing Value Source: NWS Daily Summary

Daily Weather History Graph

Daily Weather History Graph

Search for Another Location

Airport:

Trip Planner

Search our weather history database for the weather conditions in past years. The results will help you decide how hot, cold, wet, or windy it might be!

Date:

Astronomy

Mar. 24, 2014 Rise Set
Actual Time 7:21 AM EDT 7:36 PM EDT
Civil Twilight 6:56 AM EDT 8:01 PM EDT
Nautical Twilight 6:27 AM EDT 8:30 PM EDT
Astronomical Twilight 5:58 AM EDT 8:59 PM EDT
Moon 2:31 AM EDT (3/24) 1:18 PM EDT (3/24)
Length of Visible Light 13h 04m
Length of Day
12h 15m
Last Quarter, 43% of the Moon is Illuminated
Mar 24
Last Quarter
Mar 30
New
Apr 7
First Quarter
Apr 15
Full
Apr 22
Last Quarter

Hourly Weather History & Observations

Time (EDT) Temp. Windchill Dew Point Humidity Pressure Visibility Wind Dir Wind Speed Gust Speed Precip Events Conditions
12:15 AM 55.4 °F - 44.6 °F 67% 30.08 in 7.0 mi NNE 11.5 mph - N/A   Overcast
12:35 AM 55.4 °F - 44.6 °F 67% 30.09 in 7.0 mi NNE 10.4 mph - N/A   Overcast
12:55 AM 55.4 °F - 44.6 °F 67% 30.09 in 7.0 mi North 11.5 mph - N/A   Overcast
1:15 AM 55.4 °F - 44.6 °F 67% 30.09 in 10.0 mi North 13.8 mph - N/A   Overcast
1:35 AM 53.6 °F - 44.6 °F 72% 30.09 in 10.0 mi NNE 11.5 mph - N/A   Overcast
1:55 AM 53.6 °F - 44.6 °F 72% 30.10 in 7.0 mi North 13.8 mph - N/A   Overcast
2:15 AM 53.6 °F - 44.6 °F 72% 30.11 in 7.0 mi North 11.5 mph - N/A   Overcast
2:35 AM 53.6 °F - 42.8 °F 67% 30.11 in 7.0 mi NNE 18.4 mph - N/A   Overcast
2:55 AM 53.6 °F - 42.8 °F 67% 30.11 in 10.0 mi NE 16.1 mph 21.9 mph N/A   Overcast
3:15 AM 53.6 °F - 42.8 °F 67% 30.11 in 7.0 mi NE 16.1 mph - N/A   Overcast
3:35 AM 51.8 °F - 42.8 °F 71% 30.12 in 7.0 mi NNE 11.5 mph - N/A   Overcast
3:55 AM 51.8 °F - 42.8 °F 71% 30.12 in 7.0 mi NNE 13.8 mph 19.6 mph N/A   Mostly Cloudy
4:15 AM 51.8 °F - 42.8 °F 71% 30.13 in 7.0 mi NNE 12.7 mph - N/A   Scattered Clouds
4:35 AM 51.8 °F - 42.8 °F 71% 30.12 in 7.0 mi NNE 11.5 mph - N/A   Mostly Cloudy
4:55 AM 51.8 °F - 41.0 °F 67% 30.13 in 10.0 mi NE 17.3 mph - N/A   Overcast
5:15 AM 51.8 °F - 41.0 °F 67% 30.13 in 7.0 mi NNE 16.1 mph - N/A   Overcast
5:35 AM 51.8 °F - 39.2 °F 62% 30.14 in 10.0 mi NE 19.6 mph 24.2 mph N/A   Mostly Cloudy
5:55 AM 50.0 °F - 41.0 °F 71% 30.14 in 7.0 mi NNE 15.0 mph 21.9 mph N/A   Scattered Clouds
6:15 AM 50.0 °F - 41.0 °F 71% 30.16 in 10.0 mi NNE 15.0 mph - N/A   Scattered Clouds
6:35 AM 48.2 °F - 39.2 °F 71% 30.17 in 10.0 mi NE 19.6 mph 25.3 mph N/A   Clear
6:55 AM 48.2 °F - 41.0 °F 76% 30.17 in 10.0 mi NNE 16.1 mph 25.3 mph N/A   Scattered Clouds
7:15 AM 46.4 °F 39.2 °F 41.0 °F 81% 30.18 in 10.0 mi NE 18.4 mph 23.0 mph N/A   Overcast
7:35 AM 46.4 °F 38.7 °F 39.2 °F 76% 30.18 in 10.0 mi NE 20.7 mph 27.6 mph N/A   Scattered Clouds
7:55 AM 46.4 °F 39.2 °F 37.4 °F 71% 30.19 in 7.0 mi NE 18.4 mph 24.2 mph N/A   Clear
8:15 AM 46.4 °F 39.0 °F 37.4 °F 71% 30.19 in 10.0 mi NE 19.6 mph 25.3 mph N/A   Clear
8:35 AM 46.4 °F 39.0 °F 37.4 °F 71% 30.19 in 10.0 mi NE 19.6 mph 25.3 mph N/A   Clear
8:55 AM 46.4 °F 39.0 °F 37.4 °F 71% 30.20 in 10.0 mi NNE 19.6 mph - N/A   Clear
9:15 AM 48.2 °F - 37.4 °F 66% 30.20 in 10.0 mi NE 17.3 mph 25.3 mph N/A   Clear
9:35 AM 48.2 °F - 37.4 °F 66% 30.20 in 10.0 mi ENE 16.1 mph 24.2 mph N/A   Clear
9:55 AM 50.0 °F - 35.6 °F 58% 30.21 in 10.0 mi NE 17.3 mph 23.0 mph N/A   Clear
10:15 AM 50.0 °F - 35.6 °F 58% 30.22 in 10.0 mi NNE 15.0 mph 23.0 mph N/A   Clear
10:35 AM 51.8 °F - 37.4 °F 58% 30.22 in 10.0 mi NE 13.8 mph 20.7 mph N/A   Clear
10:55 AM 51.8 °F - 35.6 °F 54% 30.23 in 10.0 mi NE 15.0 mph 18.4 mph N/A   Clear
11:15 AM 51.8 °F - 35.6 °F 54% 30.23 in 10.0 mi NE 13.8 mph 18.4 mph N/A   Clear
11:35 AM 53.6 °F - 37.4 °F 54% 30.23 in 10.0 mi East 12.7 mph 23.0 mph N/A   Clear
11:55 AM 51.8 °F - 39.2 °F 62% 30.24 in 10.0 mi NE 9.2 mph - N/A   Scattered Clouds
12:15 PM 53.6 °F - 39.2 °F 58% 30.23 in 10.0 mi East 9.2 mph - N/A   Mostly Cloudy
12:35 PM 53.6 °F - 39.2 °F 58% 30.23 in 10.0 mi East 11.5 mph - N/A   Scattered Clouds
12:55 PM 53.6 °F - 39.2 °F 58% 30.22 in 10.0 mi NE 6.9 mph - N/A   Scattered Clouds
1:15 PM 53.6 °F - 39.2 °F 58% 30.21 in 10.0 mi East 10.4 mph 16.1 mph N/A   Scattered Clouds
1:35 PM 53.6 °F - 41.0 °F 62% 30.20 in 10.0 mi ENE 10.4 mph - N/A   Scattered Clouds
1:55 PM 53.6 °F - 39.2 °F 58% 30.19 in 10.0 mi NE 11.5 mph 17.3 mph N/A   Clear
2:15 PM 53.6 °F - 41.0 °F 62% 30.18 in 10.0 mi East 12.7 mph 19.6 mph N/A   Clear
2:35 PM 53.6 °F - 39.2 °F 58% 30.17 in 10.0 mi ESE 15.0 mph 18.4 mph N/A   Clear
2:55 PM 53.6 °F - 39.2 °F 58% 30.17 in 10.0 mi East 13.8 mph 17.3 mph N/A   Clear
3:15 PM 53.6 °F - 39.2 °F 58% 30.16 in 10.0 mi East 9.2 mph 17.3 mph N/A   Clear
3:35 PM 53.6 °F - 39.2 °F 58% 30.15 in 10.0 mi East 9.2 mph - N/A   Clear
3:55 PM 53.6 °F - 37.4 °F 54% 30.14 in 10.0 mi ENE 9.2 mph 17.3 mph N/A   Clear
4:15 PM 53.6 °F - 39.2 °F 58% 30.13 in 10.0 mi East 12.7 mph 18.4 mph N/A   Clear
4:35 PM 53.6 °F - 37.4 °F 54% 30.12 in 10.0 mi ESE 6.9 mph 16.1 mph N/A   Clear
4:55 PM 53.6 °F - 37.4 °F 54% 30.11 in 10.0 mi East 9.2 mph - N/A   Clear
5:15 PM 53.6 °F - 37.4 °F 54% 30.11 in 10.0 mi East 12.7 mph 16.1 mph N/A   Clear
5:35 PM 53.6 °F - 39.2 °F 58% 30.10 in 10.0 mi East 11.5 mph 17.3 mph N/A   Clear
5:55 PM 53.6 °F - 39.2 °F 58% 30.09 in 10.0 mi East 15.0 mph - N/A   Clear
6:15 PM 51.8 °F - 39.2 °F 62% 30.09 in 10.0 mi ENE 10.4 mph 17.3 mph N/A   Clear
6:35 PM 51.8 °F - 41.0 °F 67% 30.09 in 10.0 mi East 9.2 mph - N/A   Clear
6:55 PM 51.8 °F - 41.0 °F 67% 30.09 in 10.0 mi East 13.8 mph - N/A   Clear
7:15 PM 51.8 °F - 41.0 °F 67% 30.09 in 10.0 mi East 9.2 mph 16.1 mph N/A   Clear
7:35 PM 50.0 °F - 41.0 °F 71% 30.09 in 10.0 mi East 6.9 mph - N/A   Clear
7:55 PM 50.0 °F - 41.0 °F 71% 30.08 in 10.0 mi East 9.2 mph - N/A   Clear
8:15 PM 50.0 °F - 42.8 °F 76% 30.08 in 10.0 mi East 5.8 mph - N/A   Clear
8:35 PM 50.0 °F - 42.8 °F 76% 30.08 in 10.0 mi East 4.6 mph - N/A   Clear
8:55 PM 50.0 °F - 42.8 °F 76% 30.08 in 10.0 mi East 6.9 mph - N/A   Clear
9:15 PM 50.0 °F - 42.8 °F 76% 30.08 in 10.0 mi ENE 6.9 mph - N/A   Clear
9:35 PM 50.0 °F - 42.8 °F 76% 30.08 in 10.0 mi East 6.9 mph - N/A   Clear
9:55 PM 50.0 °F - 42.8 °F 76% 30.07 in 10.0 mi East 10.4 mph - N/A   Clear
10:15 PM 51.8 °F - 44.6 °F 76% 30.07 in 10.0 mi East 10.4 mph - N/A   Mostly Cloudy
10:35 PM 51.8 °F - 44.6 °F 76% 30.06 in 10.0 mi East 10.4 mph - N/A   Overcast
10:55 PM 51.8 °F - 44.6 °F 76% 30.05 in 10.0 mi East 13.8 mph - N/A   Overcast
11:15 PM 51.8 °F - 44.6 °F 76% 30.04 in 10.0 mi ENE 11.5 mph 16.1 mph N/A   Overcast
11:35 PM 51.8 °F - 44.6 °F 76% 30.04 in 10.0 mi ENE 10.4 mph - N/A   Overcast
11:55 PM 51.8 °F - 44.6 °F 76% 30.03 in 10.0 mi ENE 8.1 mph 18.4 mph N/A   Overcast